Location: Caltech
(34.1382°N, 118.1253°W)
Time: 16:08:07
(UTC-07:00)

A-11 Canister half - All Passes

Search period start: 02 July 2015 00:00
Search period end: 12 July 2015 00:00
Orbit: 1516 x 1684 km, 47.2° (Epoch: 02 July)

Date Brightness Start Highest point End Pass type
(mag) Time Alt. Az. Time Alt. Az. Time Alt. Az.
02 Jul - 00:42:33 10° WNW 00:51:34 38° N 01:00:16 10° ENE visible
02 Jul - 02:49:08 10° NW 02:58:27 50° NNE 03:07:30 10° E visible
02 Jul - 04:54:23 10° WNW 05:03:48 69° SW 05:12:57 10° SE visible
02 Jul - 07:02:19 10° W 07:07:41 16° SW 07:12:25 10° SSW daylight
02 Jul - 20:07:19 10° SSW 20:16:53 50° SE 20:26:20 10° ENE daylight
02 Jul - 22:11:53 10° WSW 22:21:54 63° NNW 22:31:34 10° NE visible
03 Jul - 00:19:28 10° WNW 00:28:31 38° N 00:37:17 10° ENE visible
03 Jul - 02:26:11 10° NW 02:35:29 48° NNE 02:44:30 10° E visible
03 Jul - 04:31:26 10° WNW 04:40:57 73° SW 04:50:08 10° SE visible
03 Jul - 06:38:57 10° W 06:44:51 18° SW 06:50:11 10° SSW daylight
03 Jul - 19:44:33 10° SSW 19:53:59 47° SE 20:03:21 10° ENE daylight
03 Jul - 21:48:52 10° WSW 21:58:55 66° NNW 22:08:40 10° NE visible
03 Jul - 23:56:22 10° WNW 00:05:29 38° N 00:14:18 10° ENE visible
04 Jul - 02:03:12 10° NW 02:12:29 47° NNE 02:21:29 10° E visible
04 Jul - 04:08:30 10° NW 04:18:04 77° SW 04:27:19 10° SE visible
04 Jul - 06:15:39 10° W 06:22:01 20° SW 06:27:52 10° SSW daylight
04 Jul - 19:21:49 10° SSW 19:31:06 43° SE 19:40:22 10° ENE daylight
04 Jul - 21:25:51 10° WSW 21:35:57 69° NNW 21:45:46 10° NE visible
04 Jul - 23:33:17 10° WNW 23:42:27 39° N 23:51:20 10° ENE visible
05 Jul - 01:40:14 10° NW 01:49:30 45° NNE 01:58:29 10° E visible
05 Jul - 03:45:33 10° NW 03:55:11 81° SW 04:04:29 10° SE visible
05 Jul - 05:52:25 10° W 05:59:12 22° SW 06:05:29 10° S daylight
05 Jul - 18:59:06 10° SSW 19:08:12 41° SE 19:17:22 10° ENE daylight
05 Jul - 21:02:51 10° WSW 21:12:59 72° NNW 21:22:52 10° NE visible
05 Jul - 23:10:11 10° WNW 23:19:25 40° N 23:28:21 10° ENE visible
06 Jul - 01:17:15 10° NW 01:26:30 44° NNE 01:35:28 10° E visible
06 Jul - 03:22:37 10° NW 03:32:17 86° SW 03:41:38 10° SE visible
06 Jul - 05:29:13 10° WNW 05:36:23 24° SW 05:43:03 10° S daylight
06 Jul - 18:36:24 10° SSW 18:45:19 38° SE 18:54:20 10° ENE daylight
06 Jul - 20:39:51 10° WSW 20:50:01 75° NNW 20:59:58 10° NE visible
06 Jul - 22:47:05 10° WNW 22:56:24 40° N 23:05:23 10° ENE visible
07 Jul - 00:54:15 10° NW 01:03:29 43° NNE 01:12:27 10° E visible
07 Jul - 02:59:40 10° NW 03:09:24 90° SW 03:18:46 10° SE visible
07 Jul - 05:06:04 10° WNW 05:13:33 26° SW 05:20:35 10° S visible
07 Jul - 18:13:43 10° S 18:22:26 35° SE 18:31:18 10° ENE daylight
07 Jul - 20:16:52 10° WSW 20:27:04 79° NW 20:37:03 10° NE visible
07 Jul - 22:23:59 10° W 22:33:21 41° NNW 22:42:25 10° ENE visible
08 Jul - 00:31:15 10° NW 00:40:29 42° NNE 00:49:25 10° E visible
08 Jul - 02:36:44 10° NW 02:46:30 86° NE 02:55:53 10° SE visible
08 Jul - 04:42:56 10° WNW 04:50:43 28° SW 04:58:04 10° S visible
08 Jul - 17:51:05 10° S 17:59:34 33° SE 18:08:14 10° ENE daylight
08 Jul - 19:53:54 10° WSW 20:04:07 82° NW 20:14:08 10° NE daylight
08 Jul - 22:00:53 10° W 22:10:20 42° NNW 22:19:28 10° NE visible
09 Jul - 00:08:14 10° WNW 00:17:27 41° NNE 00:26:25 10° E visible
09 Jul - 02:13:48 10° NW 02:23:35 82° NE 02:33:00 10° ESE visible
09 Jul - 04:19:51 10° WNW 04:27:53 31° SW 04:35:31 10° S visible
09 Jul - 17:28:28 10° S 17:36:41 30° SE 17:45:09 10° ENE daylight
09 Jul - 19:30:57 10° SW 19:41:10 86° NW 19:51:13 10° NE daylight
09 Jul - 21:37:48 10° W 21:47:18 43° NNW 21:56:31 10° NE visible
09 Jul - 23:45:13 10° WNW 23:54:26 41° N 00:03:23 10° E visible
10 Jul - 01:50:51 10° NW 02:00:40 78° NE 02:10:06 10° ESE visible
10 Jul - 03:56:46 10° WNW 04:05:03 33° SW 04:12:56 10° S visible
10 Jul - 17:05:53 10° S 17:13:49 28° SE 17:22:02 10° ENE daylight
10 Jul - 19:08:01 10° SW 19:18:13 90° SSE 19:28:18 10° NE daylight
10 Jul - 21:14:42 10° W 21:24:16 44° NNW 21:33:34 10° NE visible
10 Jul - 23:22:12 10° WNW 23:31:25 40° N 23:40:21 10° ENE visible
11 Jul - 01:27:54 10° NW 01:37:44 75° NNE 01:47:11 10° ESE visible
11 Jul - 03:33:42 10° WNW 03:42:13 36° SW 03:50:20 10° SSE visible
11 Jul - 16:43:21 10° S 16:50:56 26° SE 16:58:54 10° ENE daylight
11 Jul - 18:45:05 10° SW 18:55:17 86° SE 19:05:23 10° NE daylight
11 Jul - 20:51:36 10° W 21:01:14 45° NNW 21:10:37 10° NE visible
11 Jul - 22:59:10 10° WNW 23:08:22 40° N 23:17:19 10° ENE visible
